Flag for U.S.A. Weather past 2 weeks in Springfield, Massachusetts, U.S.A.

Now
47 °F

Overcast.


Feels Like: 41 °F
Forecast: 36 / 59 °F
Wind: 15 mph from Northwest

Location: Barnes Municipal Airport


UV Index: 5 (Moderate)

Visibility: 10 mi


Pressure: 29.72 "Hg

Humidity: 48%

Dew point: 28 °F

Location of SpringfieldLocation

Historic Weather in Springfield

°F

Springfield temperature yesterday

Maximum temperature yesterday: 57 °F (at 1:53 AM)
Minimum temperature yesterday: 46 °F (at 7:53 AM)
Average temperature yesterday: 50 °F

Past Weeks' High & Low Weather Summary

 TemperatureHumidityPressure
High76 °F (Apr 14, 1:53 PM)97% (Apr 12, 2:53 AM)30.79 "Hg (Apr 12, 2:53 AM)
Low26 °F (Apr 10, 5:53 AM)13% (Apr 21, 4:53 PM)29.47 "Hg (Apr 23, 3:53 AM)
Average50 °F57%30.06 "Hg
* Reported Apr 8 10:53 PM — Apr 23 10:53 PM, Springfield, Weather by CustomWeather, © 2014

Note: Actual official high and low records may vary slightly from our data, if they occured in-between our weather recording intervals... More about our weather records

Advertising

Historic Weather Conditions — Data for Previous 24 hours

 ConditionsComfort  
Time TempWeatherWind HumidityBarometerVisibility
10:53 PM
Apr 23
47 °FOvercast.23 mph48%29.70 "Hg10 mi
9:53 PM46 °FMostly cloudy.16 mph61%29.70 "Hg10 mi
8:53 PM46 °FMostly cloudy.18 mph63%29.68 "Hg10 mi
7:53 PM48 °FOvercast.24 mph56%29.65 "Hg10 mi
6:53 PM51 °FOvercast.17 mph48%29.62 "Hg10 mi
5:53 PM52 °FMostly cloudy.23 mph49%29.59 "Hg10 mi
4:53 PM55 °FOvercast.25 mph44%29.55 "Hg10 mi
3:53 PM56 °FMore clouds than sun.24 mph47%29.52 "Hg10 mi
2:53 PM54 °FMostly cloudy.16 mph55%29.53 "Hg10 mi
2:00 PM53 °FCloudy.15 mph59%29.53 "Hg10 mi
12:53 PM49 °FLight rain. Mostly cloudy.14 mph74%29.54 "Hg10 mi
11:53 AM48 °FLight rain. Cloudy.17 mph74%29.54 "Hg10 mi
10:53 AM47 °FRain. Mostly cloudy.14 mph77%29.52 "Hg7 mi
9:55 AM49 °FBroken clouds.12 mph71%29.51 "Hg10 mi
8:53 AM47 °FMostly cloudy.8 mph74%29.51 "Hg10 mi
7:53 AM46 °FLight rain. Mostly cloudy.8 mph79%29.51 "Hg10 mi
6:53 AM47 °FLight rain. Overcast.15 mph74%29.51 "Hg10 mi
5:53 AM48 °FMostly cloudy.8 mph77%29.49 "Hg10 mi
4:53 AM49 °FRain. Mostly cloudy.15 mph77%29.49 "Hg6 mi
3:53 AM53 °FOvercast.12 mph69%29.47 "Hg10 mi
2:53 AM53 °FMostly cloudy.8 mph72%29.48 "Hg10 mi
1:53 AM57 °FMostly cloudy.10 mph72%29.48 "Hg10 mi
12:53 AM56 °FPassing clouds.5 mph77%29.49 "Hg10 mi
Weather by CustomWeather, © 2014

See weather overview